,,Stat6,,Stat2,,Stat8,,Stat9,,Stat10,,Wind1,,Wind1,
time,status,PA1M_AVG,status,PR1M_SUM,status,RH1M_AVG,status,SR1M_AVG,status,TA1M_AVG,status,W1dAve1m,status,W1sAve1m,
2009-05-27, 00:00:00,VALID,917.759,VALID,0,VALID,98.0572,VALID,-0.0339617,VALID,19.2908,VALID,117,VALID,0.527616,
2009-05-27, 00:01:00,VALID,917.746,VALID,0,VALID,98.3027,VALID,-0.0339617,VALID,19.2648,VALID,124,VALID,0.300595,
2009-05-27, 00:02:00,VALID,917.744,VALID,0,VALID,98.852,VALID,0,VALID,19.2356,VALID,136,VALID,0.102325,
2009-05-27, 00:03:00,VALID,917.768,VALID,0,VALID,99.3924,VALID,-0.0509425,VALID,19.2356,VALID,136,VALID,0.0581395,
2009-05-27, 00:04:00,VALID,917.764,VALID,0,VALID,99.5514,VALID,-0.0339617,VALID,19.2354,VALID,143,VALID,0.044779,
2009-05-27, 00:05:00,VALID,917.764,VALID,0,VALID,99.6391,VALID,-0.0509425,VALID,19.2356,VALID,144,VALID,0.0459872,
2009-05-27, 00:06:00,VALID,917.77,VALID,0,VALID,99.6493,VALID,-0.0509425,VALID,19.2321,VALID,146,VALID,0.238531,
2009-05-27, 00:07:00,VALID,917.783,VALID,0,VALID,99.8973,VALID,-0.0339617,VALID,19.2259,VALID,143,VALID,0,
2009-05-27, 00:08:00,VALID,917.784,VALID,0,VALID,99.9535,VALID,-0.0339617,VALID,19.1969,VALID,138,VALID,0.0897529,
2009-05-27, 00:09:00,VALID,917.785,VALID,0,VALID,99.5908,VALID,-0.0169808,VALID,19.1478,VALID,137,VALID,0.157924,
2009-05-27, 00:10:00,VALID,917.789,VALID,0,VALID,99.3339,VALID,-0.0169808,VALID,19.1575,VALID,146,VALID,0.00533537,
2009-05-27, 00:11:00,VALID,917.803,VALID,0,VALID,99.2424,VALID,-0.0169808,VALID,19.2034,VALID,153,VALID,0.046875,
2009-05-27, 00:12:00,VALID,917.801,VALID,0,VALID,98.9245,VALID,-0.0339617,VALID,19.2161,VALID,150,VALID,0.25705,
2009-05-27, 00:13:00,VALID,917.809,VALID,0,VALID,98.6498,VALID,-0.0169808,VALID,19.2324,VALID,140,VALID,0.299006,
2009-05-27, 00:14:00,VALID,917.82,VALID,0,VALID,98.3751,VALID,-0.0339617,VALID,19.2453,VALID,127,VALID,0.127604,
2009-05-27, 00:15:00,VALID,917.852,VALID,0,VALID,98.0814,VALID,-0.0169808,VALID,19.2451,VALID,124,VALID,0.383371,
2009-05-27, 00:16:00,VALID,917.838,VALID,0,VALID,97.9085,VALID,-0.0169808,VALID,19.2516,VALID,131,VALID,0.0024858,
2009-05-27, 00:17:00,VALID,917.848,VALID,0,VALID,97.8284,VALID,-0.0339617,VALID,19.2516,VALID,131,VALID,0.274148,
2009-05-27, 00:18:00,VALID,917.841,VALID,0,VALID,97.7724,VALID,0,VALID,19.2845,VALID,138,VALID,0.655649,
2009-05-27, 00:19:00,VALID,917.852,VALID,0,VALID,97.6847,VALID,-0.0339617,VALID,19.3035,VALID,139,VALID,0.444404,
2009-05-27, 00:20:00,VALID,917.856,VALID,0,VALID,97.5651,VALID,-0.0339617,VALID,19.3364,VALID,135,VALID,0.656851,
2009-05-27, 00:21:00,VALID,917.865,VALID,0,VALID,97.3973,VALID,-0.0169808,VALID,19.3329,VALID,122,VALID,0.116097,
2009-05-27, 00:22:00,VALID,917.869,VALID,0,VALID,97.3184,VALID,0,VALID,19.3329,VALID,124,VALID,0.00266768,
2009-05-27, 00:23:00,VALID,917.879,VALID,0,VALID,97.3324,VALID,-0.0509425,VALID,19.3362,VALID,112,VALID,0.117551,
2009-05-27, 00:24:00,VALID,917.89,VALID,0,VALID,97.2421,VALID,-0.0169808,VALID,19.3197,VALID,116,VALID,0.0838542,
2009-05-27, 00:25:00,VALID,917.887,VALID,0,VALID,97.1531,VALID,0,VALID,19.2843,VALID,109,VALID,0.268895,
2009-05-27, 00:26:00,VALID,917.882,VALID,0,VALID,97.0705,VALID,-0.0509425,VALID,19.2294,VALID,109,VALID,1.0645,
2009-05-27, 00:27:00,VALID,917.871,VALID,0,VALID,97.143,VALID,-0.0509425,VALID,19.2259,VALID,108,VALID,0.148983,
2009-05-27, 00:28:00,VALID,917.868,VALID,0,VALID,96.9408,VALID,-0.0509425,VALID,19.2259,VALID,108,VALID,0.485283,
2009-05-27, 00:29:00,VALID,917.848,VALID,0,VALID,96.8861,VALID,0,VALID,19.2127,VALID,108,VALID,0.108073,
2009-05-27, 00:30:00,VALID,917.848,VALID,0,VALID,96.6369,VALID,-0.0169808,VALID,19.2029,VALID,114,VALID,0,
2009-05-27, 00:31:00,VALID,917.838,VALID,0,VALID,96.1142,VALID,-0.0509425,VALID,19.2159,VALID,126,VALID,0,
2009-05-27, 00:32:00,VALID,917.832,VALID,0,VALID,95.8637,VALID,0,VALID,19.2648,VALID,129,VALID,0.339428,
2009-05-27, 00:33:00,VALID,917.802,VALID,0,VALID,95.5191,VALID,0,VALID,19.2613,VALID,135,VALID,0.458147,
2009-05-27, 00:34:00,VALID,917.794,VALID,0,VALID,95.3932,VALID,-0.0169808,VALID,19.268,VALID,131,VALID,0.0743963,
2009-05-27, 00:35:00,VALID,917.771,VALID,0,VALID,95.2228,VALID,-0.0339617,VALID,19.2451,VALID,127,VALID,0,
2009-05-27, 00:36:00,VALID,917.769,VALID,0,VALID,95.1898,VALID,0,VALID,19.2449,VALID,128,VALID,0,
2009-05-27, 00:37:00,VALID,917.751,VALID,0,VALID,94.9978,VALID,0,VALID,19.2483,VALID,128,VALID,0,
2009-05-27, 00:38:00,VALID,917.737,VALID,0,VALID,94.6519,VALID,-0.0169808,VALID,19.2875,VALID,134,VALID,0,
2009-05-27, 00:39:00,VALID,917.732,VALID,0,VALID,94.2564,VALID,0.0169808,VALID,19.3327,VALID,138,VALID,0,
2009-05-27, 00:40:00,VALID,917.721,VALID,0,VALID,93.9144,VALID,-0.0169808,VALID,19.3878,VALID,136,VALID,0,
2009-05-27, 00:41:00,VALID,917.705,VALID,0,VALID,93.5926,VALID,0,VALID,19.4138,VALID,129,VALID,0,
2009-05-27, 00:42:00,VALID,917.701,VALID,0,VALID,93.332,VALID,-0.0339617,VALID,19.4465,VALID,136,VALID,0,
2009-05-27, 00:43:00,VALID,917.691,VALID,0,VALID,93.4553,VALID,0.0169808,VALID,19.4919,VALID,141,VALID,0.0475694,
2009-05-27, 00:44:00,VALID,917.703,VALID,0,VALID,93.2442,VALID,0.0169808,VALID,19.4949,VALID,141,VALID,0,
2009-05-27, 00:45:00,VALID,917.706,VALID,0,VALID,93.6104,VALID,0.0339617,VALID,19.5046,VALID,92,VALID,0,
2009-05-27, 00:46:00,VALID,917.71,VALID,0,VALID,93.9627,VALID,0.0169808,VALID,19.4627,VALID,43,VALID,0,
2009-05-27, 00:47:00,VALID,917.696,VALID,0,VALID,94.0517,VALID,0,VALID,19.3097,VALID,42,VALID,0,
2009-05-27, 00:48:00,VALID,917.694,VALID,0,VALID,94.2488,VALID,0.0339617,VALID,19.1957,VALID,42,VALID,0,
2009-05-27, 00:49:00,VALID,917.687,VALID,0,VALID,94.2488,VALID,0,VALID,19.1865,VALID,88,VALID,0,
2009-05-27, 00:50:00,VALID,917.703,VALID,0,VALID,94.0428,VALID,-0.0169808,VALID,19.2191,VALID,128,VALID,1.04573,
2009-05-27, 00:51:00,VALID,917.689,VALID,0,VALID,93.9004,VALID,-0.0339617,VALID,19.2713,VALID,126,VALID,1.04386,
2009-05-27, 00:52:00,VALID,917.672,VALID,0,VALID,93.8724,VALID,0.0509425,VALID,19.2706,VALID,108,VALID,0.863477,
2009-05-27, 00:53:00,VALID,917.655,VALID,0,VALID,94.2768,VALID,0,VALID,19.2226,VALID,92,VALID,0.422637,
2009-05-27, 00:54:00,VALID,917.636,VALID,0,VALID,94.704,VALID,0.0509425,VALID,19.0889,VALID,89,VALID,0,
2009-05-27, 00:55:00,VALID,917.608,VALID,0,VALID,94.9571,VALID,0.0339617,VALID,19.0178,VALID,93,VALID,0.0724085,
2009-05-27, 00:56:00,VALID,917.593,VALID,0,VALID,95.0919,VALID,0.0509425,VALID,19.0046,VALID,105,VALID,0,
2009-05-27, 00:57:00,VALID,917.566,VALID,0,VALID,94.966,VALID,0.0169808,VALID,19.0505,VALID,119,VALID,0.298878,
2009-05-27, 00:58:00,VALID,917.553,VALID,0,VALID,94.7612,VALID,0,VALID,19.0824,VALID,125,VALID,0.014881,
2009-05-27, 00:59:00,VALID,917.548,VALID,0,VALID,94.6277,VALID,0,VALID,19.0924,VALID,123,VALID,0,
2009-05-27, 01:00:00,VALID,917.527,VALID,0,VALID,94.6875,VALID,0.0169808,VALID,19.0759,VALID,124,VALID,0.330487,
2009-05-27, 01:01:00,VALID,917.501,VALID,0,VALID,94.657,VALID,0.0169808,VALID,19.0634,VALID,118,VALID,0.976918,
2009-05-27, 01:02:00,VALID,917.483,VALID,0,VALID,94.5985,VALID,0.0169808,VALID,19.0537,VALID,122,VALID,0.832217,
2009-05-27, 01:03:00,VALID,917.472,VALID,0,VALID,94.306,VALID,0,VALID,19.0505,VALID,125,VALID,0,
2009-05-27, 01:04:00,VALID,917.446,VALID,0,VALID,93.8126,VALID,0.0339617,VALID,19.0732,VALID,123,VALID,0,
2009-05-27, 01:05:00,VALID,917.419,VALID,0,VALID,93.6232,VALID,0,VALID,19.1248,VALID,111,VALID,0.230196,
2009-05-27, 01:06:00,VALID,917.4,VALID,0,VALID,94.2323,VALID,0.0679233,VALID,19.0989,VALID,80,VALID,0.601749,
2009-05-27, 01:07:00,VALID,917.372,VALID,0,VALID,94.1089,VALID,0.0169808,VALID,18.9988,VALID,78,VALID,0,
2009-05-27, 01:08:00,VALID,917.362,VALID,0,VALID,93.8711,VALID,0.0169808,VALID,18.9559,VALID,87,VALID,0.251953,
2009-05-27, 01:09:00,VALID,917.354,VALID,0,VALID,93.6537,VALID,-0.0849042,VALID,18.993,VALID,91,VALID,0.542225,
2009-05-27, 01:10:00,VALID,917.329,VALID,0,VALID,94.0021,VALID,-0.0679233,VALID,19.0289,VALID,89,VALID,0.233648,
2009-05-27, 01:11:00,VALID,917.305,VALID,0,VALID,93.6003,VALID,-0.0509425,VALID,18.9933,VALID,89,VALID,0.650347,
2009-05-27, 01:12:00,VALID,917.268,VALID,0,VALID,93.5036,VALID,-0.0679233,VALID,18.9935,VALID,91,VALID,0,
2009-05-27, 01:13:00,VALID,917.222,VALID,0,VALID,93.7147,VALID,-0.0679233,VALID,18.9733,VALID,91,VALID,0,
2009-05-27, 01:14:00,VALID,917.214,VALID,0,VALID,93.8915,VALID,-0.0339617,VALID,18.9673,VALID,91,VALID,0,
2009-05-27, 01:15:00,VALID,917.209,VALID,0,VALID,94.2272,VALID,-0.0339617,VALID,18.9504,VALID,91,VALID,0,
2009-05-27, 01:16:00,VALID,917.198,VALID,0,VALID,94.4611,VALID,-0.0849042,VALID,18.9481,VALID,91,VALID,0,
2009-05-27, 01:17:00,VALID,917.183,VALID,0,VALID,94.4929,VALID,-0.0509425,VALID,18.9122,VALID,91,VALID,0,
2009-05-27, 01:18:00,VALID,917.178,VALID,0,VALID,94.3264,VALID,-0.0509425,VALID,18.8927,VALID,104,VALID,0.115371,
2009-05-27, 01:19:00,VALID,917.157,VALID,0,VALID,94.2246,VALID,-0.101885,VALID,18.9024,VALID,130,VALID,0.888393,
2009-05-27, 01:20:00,VALID,917.155,VALID,0,VALID,94.0377,VALID,-0.0679233,VALID,18.8994,VALID,140,VALID,1.07478,
2009-05-27, 01:21:00,VALID,917.167,VALID,0,VALID,94.1445,VALID,-0.101885,VALID,18.9024,VALID,140,VALID,1.00725,
2009-05-27, 01:22:00,VALID,917.188,VALID,0,VALID,94.4472,VALID,-0.0849042,VALID,18.9024,VALID,143,VALID,0.90625,
2009-05-27, 01:23:00,VALID,917.195,VALID,0,VALID,93.8164,VALID,-0.0679233,VALID,18.873,VALID,141,VALID,1.06545,
2009-05-27, 01:24:00,VALID,917.198,VALID,0,VALID,93.5876,VALID,-0.101885,VALID,18.9024,VALID,137,VALID,1.03356,
2009-05-27, 01:25:00,VALID,917.191,VALID,0,VALID,93.1578,VALID,-0.0849042,VALID,18.9254,VALID,136,VALID,1.30814,
2009-05-27, 01:26:00,VALID,917.201,VALID,0,VALID,93.9194,VALID,-0.0849042,VALID,18.9448,VALID,135,VALID,1.15854,
2009-05-27, 01:27:00,VALID,917.188,VALID,0,VALID,94.4065,VALID,-0.118866,VALID,18.9189,VALID,124,VALID,1.11071,
2009-05-27, 01:28:00,VALID,917.197,VALID,0,VALID,94.7523,VALID,-0.101885,VALID,18.8834,VALID,135,VALID,0.996185,
2009-05-27, 01:29:00,VALID,917.189,VALID,0,VALID,95.3436,VALID,-0.135847,VALID,18.864,VALID,145,VALID,0.721475,
2009-05-27, 01:30:00,VALID,917.192,VALID,0,VALID,96.3558,VALID,-0.101885,VALID,18.8827,VALID,151,VALID,0.954055,
2009-05-27, 01:31:00,VALID,917.187,VALID,0,VALID,97.2854,VALID,-0.118866,VALID,18.9062,VALID,144,VALID,1.16216,
2009-05-27, 01:32:00,VALID,917.168,VALID,0,VALID,97.6656,VALID,-0.118866,VALID,18.8735,VALID,138,VALID,0.828316,
2009-05-27, 01:33:00,VALID,917.136,VALID,0,VALID,97.7711,VALID,-0.101885,VALID,18.8311,VALID,136,VALID,0.280342,
2009-05-27, 01:34:00,VALID,917.116,VALID,0,VALID,97.5054,VALID,-0.118866,VALID,18.7951,VALID,129,VALID,0.0213415,
2009-05-27, 01:35:00,VALID,917.094,VALID,0,VALID,97.3604,VALID,-0.101885,VALID,18.7891,VALID,140,VALID,0,
2009-05-27, 01:36:00,VALID,917.051,VALID,0,VALID,97.1226,VALID,-0.101885,VALID,18.8053,VALID,144,VALID,0,
2009-05-27, 01:37:00,VALID,917.017,VALID,0,VALID,96.558,VALID,-0.0849042,VALID,18.8246,VALID,148,VALID,0,
2009-05-27, 01:38:00,VALID,916.998,VALID,0,VALID,96.0672,VALID,-0.118866,VALID,18.8929,VALID,143,VALID,0,
2009-05-27, 01:39:00,VALID,916.973,VALID,0,VALID,95.8485,VALID,-0.0169808,VALID,18.9501,VALID,142,VALID,0.276163,
2009-05-27, 01:40:00,VALID,916.944,VALID,0,VALID,95.3271,VALID,0.0169808,VALID,18.9726,VALID,133,VALID,0.182594,
2009-05-27, 01:41:00,VALID,916.924,VALID,0,VALID,93.7452,VALID,-0.0169808,VALID,18.9689,VALID,121,VALID,0.154204,
2009-05-27, 01:42:00,VALID,916.919,VALID,0,VALID,91.4869,VALID,0,VALID,19.0595,VALID,116,VALID,0.320494,
2009-05-27, 01:43:00,VALID,916.887,VALID,0,VALID,89.9533,VALID,0,VALID,19.2324,VALID,113,VALID,0.466332,
2009-05-27, 01:44:00,VALID,916.88,VALID,0,VALID,88.6296,VALID,-0.0849042,VALID,19.3272,VALID,111,VALID,0,
2009-05-27, 01:45:00,VALID,916.875,VALID,0,VALID,87.5716,VALID,-0.118866,VALID,19.405,VALID,118,VALID,0.162024,
2009-05-27, 01:46:00,VALID,916.876,VALID,0,VALID,87.2333,VALID,-0.0679233,VALID,19.4697,VALID,127,VALID,1.23379,
2009-05-27, 01:47:00,VALID,916.876,VALID,0,VALID,87.48,VALID,-0.101885,VALID,19.4834,VALID,129,VALID,1.3748,
2009-05-27, 01:48:00,VALID,916.867,VALID,0,VALID,87.6581,VALID,-0.0679233,VALID,19.4477,VALID,129,VALID,1.31389,
2009-05-27, 01:49:00,VALID,916.873,VALID,0,VALID,87.7038,VALID,-0.0509425,VALID,19.402,VALID,132,VALID,1.48647,
2009-05-27, 01:50:00,VALID,916.862,VALID,0,VALID,87.8094,VALID,-0.0849042,VALID,19.3534,VALID,125,VALID,1.37537,
2009-05-27, 01:51:00,VALID,916.832,VALID,0,VALID,87.728,VALID,-0.0849042,VALID,19.3182,VALID,130,VALID,1.45351,
2009-05-27, 01:52:00,VALID,916.82,VALID,0,VALID,87.6606,VALID,-0.0849042,VALID,19.282,VALID,135,VALID,1.33043,
2009-05-27, 01:53:00,VALID,916.801,VALID,0,VALID,88.2405,VALID,-0.135847,VALID,19.266,VALID,130,VALID,1.02954,
2009-05-27, 01:54:00,VALID,916.798,VALID,0,VALID,88.5228,VALID,0,VALID,19.2129,VALID,142,VALID,0.641158,
2009-05-27, 01:55:00,VALID,916.782,VALID,0,VALID,88.9754,VALID,0,VALID,19.1932,VALID,144,VALID,0.511814,
2009-05-27, 01:56:00,VALID,916.786,VALID,0,VALID,89.1547,VALID,0.0169808,VALID,19.1633,VALID,149,VALID,0.903011,
2009-05-27, 01:57:00,VALID,916.785,VALID,0,VALID,89.2399,VALID,0,VALID,19.1478,VALID,144,VALID,0.863567,
2009-05-27, 01:58:00,VALID,916.77,VALID,0,VALID,89.4637,VALID,0,VALID,19.1118,VALID,133,VALID,0.133903,
2009-05-27, 01:59:00,VALID,916.766,VALID,0,VALID,89.6545,VALID,0,VALID,19.0694,VALID,131,VALID,0,
2009-05-27, 02:00:00,VALID,916.746,VALID,0,VALID,89.9368,VALID,-0.0169808,VALID,19.0569,VALID,139,VALID,0,
2009-05-27, 02:01:00,VALID,916.756,VALID,0,VALID,89.8185,VALID,0.0169808,VALID,19.0602,VALID,140,VALID,0,
2009-05-27, 02:02:00,VALID,916.742,VALID,0,VALID,89.7079,VALID,0,VALID,19.0597,VALID,140,VALID,0.0807292,
2009-05-27, 02:03:00,VALID,916.746,VALID,0,VALID,89.7015,VALID,0.0339617,VALID,19.0861,VALID,140,VALID,0.418445,
2009-05-27, 02:04:00,VALID,916.743,VALID,0,VALID,90.1504,VALID,0,VALID,19.1056,VALID,140,VALID,0.18608,
2009-05-27, 02:05:00,VALID,916.735,VALID,0,VALID,90.9159,VALID,-0.0169808,VALID,19.1348,VALID,140,VALID,0,
2009-05-27, 02:06:00,VALID,916.744,VALID,0,VALID,91.8823,VALID,0,VALID,19.1378,VALID,140,VALID,0,
2009-05-27, 02:07:00,VALID,916.749,VALID,0,VALID,92.1189,VALID,0.0169808,VALID,19.0535,VALID,140,VALID,0,
2009-05-27, 02:08:00,VALID,916.732,VALID,0,VALID,92.583,VALID,0,VALID,19.005,VALID,140,VALID,0.216493,
2009-05-27, 02:09:00,VALID,916.716,VALID,0,VALID,93.084,VALID,-0.0339617,VALID,18.9761,VALID,140,VALID,0.0236151,
2009-05-27, 02:10:00,VALID,916.697,VALID,0,VALID,93.9093,VALID,0,VALID,18.9856,VALID,172,VALID,0.193026,
2009-05-27, 02:11:00,VALID,916.688,VALID,0,VALID,94.4014,VALID,0,VALID,18.9955,VALID,175,VALID,0.32613,
2009-05-27, 02:12:00,VALID,916.701,VALID,0,VALID,94.7218,VALID,0,VALID,18.9721,VALID,175,VALID,0.00898437,
2009-05-27, 02:13:00,VALID,916.705,VALID,0,VALID,94.3531,VALID,0.0169808,VALID,18.9432,VALID,165,VALID,0.730824,
2009-05-27, 02:14:00,VALID,916.693,VALID,0,VALID,92.6021,VALID,0,VALID,18.8815,VALID,146,VALID,0.956641,
2009-05-27, 02:15:00,VALID,916.686,VALID,0,VALID,92.9568,VALID,0,VALID,18.9724,VALID,137,VALID,0.52111,
2009-05-27, 02:16:00,VALID,916.678,VALID,0,VALID,92.7623,VALID,0.0169808,VALID,18.9691,VALID,131,VALID,0.381925,
2009-05-27, 02:17:00,VALID,916.675,VALID,0,VALID,92.3884,VALID,0,VALID,18.9499,VALID,133,VALID,0.283398,
2009-05-27, 02:18:00,VALID,916.681,VALID,0,VALID,90.9808,VALID,0,VALID,18.9142,VALID,146,VALID,0.160417,
2009-05-27, 02:19:00,VALID,916.666,VALID,0,VALID,90.4289,VALID,0,VALID,18.9402,VALID,140,VALID,0.14755,
2009-05-27, 02:20:00,VALID,916.673,VALID,0,VALID,88.8279,VALID,0,VALID,18.9337,VALID,118,VALID,0.703852,
2009-05-27, 02:21:00,VALID,916.668,VALID,0,VALID,88.0472,VALID,0,VALID,18.9786,VALID,119,VALID,0.564174,
2009-05-27, 02:22:00,VALID,916.671,VALID,0,VALID,86.6115,VALID,0,VALID,19.0472,VALID,126,VALID,0,
2009-05-27, 02:23:00,VALID,916.661,VALID,0,VALID,86.5034,VALID,0,VALID,19.167,VALID,126,VALID,0,
2009-05-27, 02:24:00,VALID,916.662,VALID,0,VALID,86.0953,VALID,-0.101885,VALID,19.2141,VALID,119,VALID,0,
2009-05-27, 02:25:00,VALID,916.65,VALID,0,VALID,85.4734,VALID,-0.0849042,VALID,19.1946,VALID,119,VALID,0,
2009-05-27, 02:26:00,VALID,916.646,VALID,0,VALID,85.1059,VALID,-0.0849042,VALID,19.2433,VALID,116,VALID,0,
2009-05-27, 02:27:00,VALID,916.627,VALID,0,VALID,87.5614,VALID,-0.101885,VALID,19.3277,VALID,111,VALID,0,
2009-05-27, 02:28:00,VALID,916.622,VALID,0,VALID,89.1662,VALID,-0.0849042,VALID,19.282,VALID,111,VALID,0,
2009-05-27, 02:29:00,VALID,916.584,VALID,0,VALID,89.3862,VALID,-0.101885,VALID,19.2039,VALID,111,VALID,0,
2009-05-27, 02:30:00,VALID,916.562,VALID,0,VALID,88.8546,VALID,-0.0849042,VALID,19.1024,VALID,111,VALID,0,
2009-05-27, 02:31:00,VALID,916.538,VALID,0,VALID,89.1331,VALID,-0.101885,VALID,19.0801,VALID,111,VALID,0,
2009-05-27, 02:32:00,VALID,916.519,VALID,0,VALID,89.8961,VALID,-0.118866,VALID,19.0906,VALID,111,VALID,0,
2009-05-27, 02:33:00,VALID,916.495,VALID,0,VALID,89.2705,VALID,-0.101885,VALID,19.0709,VALID,111,VALID,0,
2009-05-27, 02:34:00,VALID,916.482,VALID,0,VALID,86.5823,VALID,-0.118866,VALID,19.0028,VALID,194,VALID,0,
2009-05-27, 02:35:00,VALID,916.444,VALID,0,VALID,86.1385,VALID,-0.118866,VALID,19.0549,VALID,196,VALID,0,
2009-05-27, 02:36:00,VALID,916.421,VALID,0,VALID,87.5551,VALID,-0.101885,VALID,19.1719,VALID,196,VALID,0,
2009-05-27, 02:37:00,VALID,916.397,VALID,0,VALID,86.2364,VALID,-0.135847,VALID,19.1722,VALID,196,VALID,0,
2009-05-27, 02:38:00,VALID,916.383,VALID,0,VALID,86.609,VALID,-0.101885,VALID,19.2011,VALID,196,VALID,0,
2009-05-27, 02:39:00,VALID,916.378,VALID,0,VALID,85.2306,VALID,0.0169808,VALID,19.1665,VALID,196,VALID,0,
2009-05-27, 02:40:00,VALID,916.372,VALID,0,VALID,86.6509,VALID,0.0169808,VALID,19.2219,VALID,196,VALID,0,
2009-05-27, 02:41:00,VALID,916.364,VALID,0,VALID,88.1451,VALID,0.0339617,VALID,19.2446,VALID,196,VALID,0,
2009-05-27, 02:42:00,VALID,916.362,VALID,0,VALID,88.2595,VALID,-0.0169808,VALID,19.157,VALID,196,VALID,0,
2009-05-27, 02:43:00,VALID,916.336,VALID,0,VALID,88.1298,VALID,0.0339617,VALID,19.049,VALID,188,VALID,0,
2009-05-27, 02:44:00,VALID,916.339,VALID,0,VALID,88.6397,VALID,0.0509425,VALID,18.9816,VALID,185,VALID,0,
2009-05-27, 02:45:00,VALID,916.326,VALID,0,VALID,87.873,VALID,0.0169808,VALID,18.9065,VALID,185,VALID,0,
2009-05-27, 02:46:00,VALID,916.325,VALID,0,VALID,86.1092,VALID,0.0339617,VALID,18.8905,VALID,185,VALID,0,
2009-05-27, 02:47:00,VALID,916.295,VALID,0,VALID,86.5429,VALID,0,VALID,18.9721,VALID,185,VALID,0,
2009-05-27, 02:48:00,VALID,916.279,VALID,0,VALID,86.9015,VALID,0.0339617,VALID,18.9167,VALID,185,VALID,0,
2009-05-27, 02:49:00,VALID,916.266,VALID,0,VALID,87.9734,VALID,-0.0169808,VALID,18.8262,VALID,185,VALID,0,
2009-05-27, 02:50:00,VALID,916.248,VALID,0,VALID,89.0301,VALID,0,VALID,18.7481,VALID,179,VALID,0,
2009-05-27, 02:51:00,VALID,916.251,VALID,0,VALID,89.8554,VALID,0.0339617,VALID,18.6508,VALID,157,VALID,0,
2009-05-27, 02:52:00,VALID,916.245,VALID,0,VALID,89.0161,VALID,0,VALID,18.5664,VALID,156,VALID,0,
2009-05-27, 02:53:00,VALID,916.246,VALID,0,VALID,88.8368,VALID,0,VALID,18.6283,VALID,157,VALID,0,
2009-05-27, 02:54:00,VALID,916.248,VALID,0,VALID,88.7326,VALID,-0.0679233,VALID,18.6841,VALID,134,VALID,0,
2009-05-27, 02:55:00,VALID,916.244,VALID,0,VALID,88.8127,VALID,-0.101885,VALID,18.6978,VALID,147,VALID,0,
2009-05-27, 02:56:00,VALID,916.232,VALID,0,VALID,89.9393,VALID,-0.118866,VALID,18.7368,VALID,152,VALID,0,
2009-05-27, 02:57:00,VALID,916.226,VALID,0,VALID,91.5822,VALID,-0.118866,VALID,18.7622,VALID,157,VALID,0,
2009-05-27, 02:58:00,VALID,916.221,VALID,0,VALID,93.2722,VALID,-0.0679233,VALID,18.7849,VALID,152,VALID,0,
2009-05-27, 02:59:00,VALID,916.233,VALID,0,VALID,93.627,VALID,-0.101885,VALID,18.7006,VALID,144,VALID,0,
2009-05-27, 03:00:00,VALID,916.254,VALID,0,VALID,94.039,VALID,-0.101885,VALID,18.629,VALID,152,VALID,0,
2009-05-27, 03:01:00,VALID,916.263,VALID,0,VALID,94.2437,VALID,-0.0849042,VALID,18.6165,VALID,155,VALID,0,
2009-05-27, 03:02:00,VALID,916.269,VALID,0,VALID,94.3136,VALID,-0.101885,VALID,18.6269,VALID,133,VALID,0,
2009-05-27, 03:03:00,VALID,916.253,VALID,0,VALID,94.4179,VALID,-0.118866,VALID,18.6072,VALID,155,VALID,0.199314,
2009-05-27, 03:04:00,VALID,916.228,VALID,0,VALID,94.4255,VALID,-0.101885,VALID,18.5676,VALID,149,VALID,0.391406,
2009-05-27, 03:05:00,VALID,916.208,VALID,0,VALID,94.6277,VALID,-0.0849042,VALID,18.5062,VALID,150,VALID,0.252604,
2009-05-27, 03:06:00,VALID,916.204,VALID,0,VALID,94.7193,VALID,-0.0849042,VALID,18.4798,VALID,156,VALID,0.0552591,
2009-05-27, 03:07:00,VALID,916.217,VALID,0,VALID,94.3289,VALID,-0.118866,VALID,18.4805,VALID,151,VALID,0.467297,
2009-05-27, 03:08:00,VALID,916.206,VALID,0,VALID,94.0339,VALID,-0.0679233,VALID,18.4733,VALID,158,VALID,0.438802,
2009-05-27, 03:09:00,VALID,916.201,VALID,0,VALID,93.51,VALID,0,VALID,18.4756,VALID,153,VALID,0.627725,
2009-05-27, 03:10:00,VALID,916.197,VALID,0,VALID,93.4947,VALID,-0.0169808,VALID,18.5145,VALID,152,VALID,0.520647,
2009-05-27, 03:11:00,VALID,916.161,VALID,0,VALID,92.6313,VALID,0.0339617,VALID,18.5143,VALID,152,VALID,0.724085,
2009-05-27, 03:12:00,VALID,916.155,VALID,0,VALID,91.9777,VALID,0.0169808,VALID,18.5565,VALID,151,VALID,0.673781,
2009-05-27, 03:13:00,VALID,916.148,VALID,0,VALID,91.4589,VALID,0.0169808,VALID,18.6121,VALID,150,VALID,0.146984,
2009-05-27, 03:14:00,VALID,916.134,VALID,0,VALID,90.8879,VALID,0,VALID,18.664,VALID,150,VALID,0.512576,
2009-05-27, 03:15:00,VALID,916.145,VALID,0,VALID,90.8918,VALID,0,VALID,18.7126,VALID,150,VALID,0.325838,
2009-05-27, 03:16:00,VALID,916.162,VALID,0,VALID,91.1766,VALID,0,VALID,18.7483,VALID,150,VALID,0,
2009-05-27, 03:17:00,VALID,916.144,VALID,0,VALID,91.0698,VALID,0.0339617,VALID,18.7446,VALID,150,VALID,0,
2009-05-27, 03:18:00,VALID,916.136,VALID,0,VALID,90.9553,VALID,0.0509425,VALID,18.7351,VALID,150,VALID,0.0785061,
2009-05-27, 03:19:00,VALID,916.119,VALID,0,VALID,91.2516,VALID,-0.0169808,VALID,18.7453,VALID,150,VALID,0.13244,
2009-05-27, 03:20:00,VALID,916.11,VALID,0,VALID,91.464,VALID,0.0169808,VALID,18.7548,VALID,150,VALID,0,
2009-05-27, 03:21:00,VALID,916.112,VALID,0,VALID,91.3139,VALID,0.0169808,VALID,18.7381,VALID,150,VALID,0.217928,
2009-05-27, 03:22:00,VALID,916.125,VALID,0,VALID,91.3025,VALID,0.0169808,VALID,18.7124,VALID,150,VALID,0.30878,
2009-05-27, 03:23:00,VALID,916.115,VALID,0,VALID,90.8193,VALID,0.0339617,VALID,18.6605,VALID,150,VALID,0.40696,
2009-05-27, 03:24:00,VALID,916.109,VALID,0,VALID,90.8994,VALID,-0.0169808,VALID,18.6123,VALID,151,VALID,0.604167,
2009-05-27, 03:25:00,VALID,916.104,VALID,0,VALID,90.1123,VALID,0,VALID,18.5734,VALID,153,VALID,0.682736,
2009-05-27, 03:26:00,VALID,916.101,VALID,0,VALID,88.8877,VALID,0,VALID,18.5963,VALID,153,VALID,0.256288,
2009-05-27, 03:27:00,VALID,916.104,VALID,0,VALID,88.9042,VALID,0,VALID,18.6767,VALID,150,VALID,0.678622,
2009-05-27, 03:28:00,VALID,916.105,VALID,0,VALID,88.8839,VALID,0.0169808,VALID,18.7087,VALID,149,VALID,0.752858,
2009-05-27, 03:29:00,VALID,916.09,VALID,0,VALID,88.7453,VALID,0.0339617,VALID,18.7224,VALID,147,VALID,0.843564,
2009-05-27, 03:30:00,VALID,916.087,VALID,0,VALID,88.1896,VALID,0.0169808,VALID,18.7291,VALID,138,VALID,0.926314,
2009-05-27, 03:31:00,VALID,916.081,VALID,0,VALID,88.2417,VALID,0,VALID,18.7261,VALID,122,VALID,0.643403,
2009-05-27, 03:32:00,VALID,916.074,VALID,0,VALID,88.7478,VALID,0,VALID,18.6964,VALID,115,VALID,0.17866,
2009-05-27, 03:33:00,VALID,916.045,VALID,0,VALID,88.6512,VALID,-0.0169808,VALID,18.6318,VALID,117,VALID,0,
2009-05-27, 03:34:00,VALID,916.015,VALID,0,VALID,88.2722,VALID,0,VALID,18.6125,VALID,117,VALID,0,
2009-05-27, 03:35:00,VALID,915.981,VALID,0,VALID,88.7542,VALID,0,VALID,18.6188,VALID,117,VALID,0,
2009-05-27, 03:36:00,VALID,915.974,VALID,0,VALID,89.2196,VALID,-0.0169808,VALID,18.5931,VALID,117,VALID,0,
2009-05-27, 03:37:00,VALID,915.962,VALID,0,VALID,89.4866,VALID,0,VALID,18.5801,VALID,125,VALID,0.239211,